Location: Arbon
(43.0005°N, 0.7472°E)
Time: 10:28:32
(UTC+00:00)

Vanguard 2 Rocket - Pass Details

Date: 01 December 2020
Orbit: 554 x 3325 km, 32.9° (Epoch: 21 January)

Event Time Altitude Azimuth Distance (km) Brightness Sun altitude
Rises 13:18:20 0° 279° (W) 6,951 11.6 21.7°
Reaches altitude 10° 13:24:31 10° 269° (W) 5,562 11.3 21.2°
Maximum altitude 13:35:51 25° 223° (SW) 3,517 11.9 20.3°
Drops below altitude 10° 13:43:43 10° 173° (S) 3,740 11.0 19.7°
Sets 13:46:56 0° 159° (SSE) 4,342 11.0 19.4°
